Volver al catálogo

STARLINK-30126

ActivoComunicacionesVLEO
NORAD 56694·PAYLOAD·🇺🇸 United States

Lanzado May 19, 2023 desde Cape Canaveral Space Force Station

Loading…

Próximos Pases (próximas 24 horas)

TLE

ActualizadoSource: CelesTrak SupGP

Época: Sep 15, 2026, 02:31 UTC

1 56694C 23067G   26258.10534722  .00010291  00000+0  37276-3 0  2583
2 56694  43.0023 284.5786 0001507 260.3618 355.5422 15.27573161    18

Sigue STARLINK-30126 en tiempo real con AllMySat

Download on the App Store